******** Week 145 almanac for PRN-1 ******** ID: 1 Health: 0 Eccentricity: 0.01127338409 Time of Applicability(s): 503808 Orbital Inclination(rad): 0.986435933 Rate of Right Ascen(r/s): -7.908900866e-09 SQRT(A) (m 1/2): 5153.624512 Right Ascen at Week(rad): -1.412348021 Argument of Perigee(rad): 0.8818730468 Mean Anom(rad): -1.999227874 Af0(s): 0.0003564879517 Af1(s/s): -1.091394e-11 week: 145 ******** Week 145 almanac for PRN-2 ******** ID: 2 Health: 0 Eccentricity: 0.02069044113 Time of Applicability(s): 503808 Orbital Inclination(rad): 0.9647924229 Rate of Right Ascen(r/s): -8.023191341e-09 SQRT(A) (m 1/2): 5153.628906 Right Ascen at Week(rad): -1.501144761 Argument of Perigee(rad): -1.453769248 Mean Anom(rad): -1.840688563 Af0(s): -0.0005132522095 Af1(s/s): 0 week: 145 ******** Week 145 almanac for PRN-3 ******** ID: 3 Health: 0 Eccentricity: 0.003866672516 Time of Applicability(s): 503808 Orbital Inclination(rad): 0.9724982795 Rate of Right Ascen(r/s): -8.046049436e-09 SQRT(A) (m 1/2): 5153.645508 Right Ascen at Week(rad): -0.3767746685 Argument of Perigee(rad): 0.972386527 Mean Anom(rad): 3.118390821 Af0(s): -6.933803711e-05 Af1(s/s): -1.455192e-11 week: 145 ******** Week 145 almanac for PRN-4 ******** ID: 4 Health: 0 Eccentricity: 0.00165605545 Time of Applicability(s): 503808 Orbital Inclination(rad): 0.9612031475 Rate of Right Ascen(r/s): -7.703178011e-09 SQRT(A) (m 1/2): 5153.616699 Right Ascen at Week(rad): 0.7040159139 Argument of Perigee(rad): -3.097843867 Mean Anom(rad): -0.1842128917 Af0(s): -0.0001529958862 Af1(s/s): 3.637979e-12 week: 145 ******** Week 145 almanac for PRN-5 ******** ID: 5 Health: 0 Eccentricity: 0.005889415741 Time of Applicability(s): 503808 Orbital Inclination(rad): 0.9594654349 Rate of Right Ascen(r/s): -8.194627053e-09 SQRT(A) (m 1/2): 5153.599609 Right Ascen at Week(rad): -0.4168364344 Argument of Perigee(rad): 1.011953569 Mean Anom(rad): 0.648392632 Af0(s): -5.426455078e-05 Af1(s/s): 0 week: 145 ******** Week 145 almanac for PRN-6 ******** ID: 6 Health: 0 Eccentricity: 0.002650260925 Time of Applicability(s): 503808 Orbital Inclination(rad): 0.9858187454 Rate of Right Ascen(r/s): -7.886042771e-09 SQRT(A) (m 1/2): 5153.608398 Right Ascen at Week(rad): -1.420621631 Argument of Perigee(rad): -0.9928271206 Mean Anom(rad): -1.637771666 Af0(s): 0.0001401834229 Af1(s/s): 1.091394e-11 week: 145 ******** Week 145 almanac for PRN-7 ******** ID: 7 Health: 0 Eccentricity: 0.01544284821 Time of Applicability(s): 503808 Orbital Inclination(rad): 0.95057314 Rate of Right Ascen(r/s): -8.034620388e-09 SQRT(A) (m 1/2): 5153.641113 Right Ascen at Week(rad): 1.723358881 Argument of Perigee(rad): -2.294647257 Mean Anom(rad): -2.663223592 Af0(s): 0.0002404221069 Af1(s/s): 3.637979e-12 week: 145 ******** Week 145 almanac for PRN-8 ******** ID: 8 Health: 0 Eccentricity: 0.007172584534 Time of Applicability(s): 503808 Orbital Inclination(rad): 0.9652418313 Rate of Right Ascen(r/s): -7.703178011e-09 SQRT(A) (m 1/2): 5153.665527 Right Ascen at Week(rad): -2.491852547 Argument of Perigee(rad): 0.08572503332 Mean Anom(rad): 0.291411409 Af0(s): -4.220576172e-05 Af1(s/s): 0 week: 145 ******** Week 145 almanac for PRN-9 ******** ID: 9 Health: 0 Eccentricity: 0.002320766449 Time of Applicability(s): 503808 Orbital Inclination(rad): 0.9542223365 Rate of Right Ascen(r/s): -7.794610391e-09 SQRT(A) (m 1/2): 5153.59082 Right Ascen at Week(rad): 0.6512684715 Argument of Perigee(rad): 1.859401181 Mean Anom(rad): 0.6313596779 Af0(s): -0.0002818741943 Af1(s/s): 0 week: 145 ******** Week 145 almanac for PRN-10 ******** ID: 10 Health: 0 Eccentricity: 0.007452011108 Time of Applicability(s): 503808 Orbital Inclination(rad): 0.9723245082 Rate of Right Ascen(r/s): -8.023191341e-09 SQRT(A) (m 1/2): 5153.629395 Right Ascen at Week(rad): -0.379572236 Argument of Perigee(rad): -2.531047329 Mean Anom(rad): 2.269447803 Af0(s): -0.0002366537353 Af1(s/s): -1.091394e-11 week: 145 ******** Week 145 almanac for PRN-11 ******** ID: 11 Health: 255 Eccentricity: 0.0002908706665 Time of Applicability(s): 503808 Orbital Inclination(rad): 0.9615387058 Rate of Right Ascen(r/s): -8.171768958e-09 SQRT(A) (m 1/2): 5153.709473 Right Ascen at Week(rad): -1.367980923 Argument of Perigee(rad): 2.872879742 Mean Anom(rad): 0.1334177544 Af0(s): -5.200352783e-05 Af1(s/s): -3.637979e-11 week: 145 ******** Week 145 almanac for PRN-12 ******** ID: 12 Health: 0 Eccentricity: 0.008601665497 Time of Applicability(s): 503808 Orbital Inclination(rad): 0.9708025116 Rate of Right Ascen(r/s): -7.886042771e-09 SQRT(A) (m 1/2): 5153.561035 Right Ascen at Week(rad): 2.835980314 Argument of Perigee(rad): 1.238114244 Mean Anom(rad): 2.958743718 Af0(s): -0.0001258636108 Af1(s/s): -7.275958e-12 week: 145 ******** Week 145 almanac for PRN-13 ******** ID: 13 Health: 0 Eccentricity: 0.005799770355 Time of Applicability(s): 503808 Orbital Inclination(rad): 0.9685974143 Rate of Right Ascen(r/s): -7.623174678e-09 SQRT(A) (m 1/2): 5153.633301 Right Ascen at Week(rad): 0.803691334 Argument of Perigee(rad): 0.9683178826 Mean Anom(rad): -0.314377678 Af0(s): 0.0001967089966 Af1(s/s): 7.275958e-12 week: 145 ******** Week 145 almanac for PRN-14 ******** ID: 14 Health: 0 Eccentricity: 0.001341342926 Time of Applicability(s): 503808 Orbital Inclination(rad): 0.954198368 Rate of Right Ascen(r/s): -8.034620388e-09 SQRT(A) (m 1/2): 5153.586914 Right Ascen at Week(rad): 2.805087604 Argument of Perigee(rad): 3.038620075 Mean Anom(rad): 3.000878006 Af0(s): -5.803292236e-05 Af1(s/s): -3.637979e-12 week: 145 ******** Week 145 almanac for PRN-15 ******** ID: 15 Health: 0 Eccentricity: 0.01392745972 Time of Applicability(s): 503808 Orbital Inclination(rad): 0.9301220602 Rate of Right Ascen(r/s): -8.023191341e-09 SQRT(A) (m 1/2): 5153.677734 Right Ascen at Week(rad): 0.5458945524 Argument of Perigee(rad): 1.071037296 Mean Anom(rad): -0.7175977858 Af0(s): -7.084538574e-05 Af1(s/s): 3.637979e-12 week: 145 ******** Week 145 almanac for PRN-16 ******** ID: 16 Health: 0 Eccentricity: 0.01267433166 Time of Applicability(s): 503808 Orbital Inclination(rad): 0.9707725511 Rate of Right Ascen(r/s): -7.886042771e-09 SQRT(A) (m 1/2): 5153.536621 Right Ascen at Week(rad): 2.854604174 Argument of Perigee(rad): 0.6989364751 Mean Anom(rad): 1.102967765 Af0(s): -0.0003625173462 Af1(s/s): -3.637979e-12 week: 145 ******** Week 145 almanac for PRN-17 ******** ID: 17 Health: 0 Eccentricity: 0.01368761063 Time of Applicability(s): 503808 Orbital Inclination(rad): 0.9802820335 Rate of Right Ascen(r/s): -7.566029441e-09 SQRT(A) (m 1/2): 5153.70459 Right Ascen at Week(rad): -2.410349706 Argument of Perigee(rad): -1.505830219 Mean Anom(rad): 0.1962952374 Af0(s): 0.0004461751953 Af1(s/s): 3.637979e-12 week: 145 ******** Week 145 almanac for PRN-18 ******** ID: 18 Health: 0 Eccentricity: 0.002089977264 Time of Applicability(s): 503808 Orbital Inclination(rad): 0.9702272688 Rate of Right Ascen(r/s): -8.046049436e-09 SQRT(A) (m 1/2): 5153.57666 Right Ascen at Week(rad): -1.404160174 Argument of Perigee(rad): 3.11245451 Mean Anom(rad): -1.812917743 Af0(s): 0.0002027383911 Af1(s/s): -7.275958e-12 week: 145 ******** Week 145 almanac for PRN-19 ******** ID: 19 Health: 0 Eccentricity: 0.008941650391 Time of Applicability(s): 503808 Orbital Inclination(rad): 0.9789937294 Rate of Right Ascen(r/s): -7.600316584e-09 SQRT(A) (m 1/2): 5153.639648 Right Ascen at Week(rad): -2.365449309 Argument of Perigee(rad): 1.99842156 Mean Anom(rad): 2.597872865 Af0(s): 8.591887207e-05 Af1(s/s): 3.637979e-12 week: 145 ******** Week 145 almanac for PRN-20 ******** ID: 20 Health: 0 Eccentricity: 0.005266666412 Time of Applicability(s): 503808 Orbital Inclination(rad): 0.9415909634 Rate of Right Ascen(r/s): -8.400349908e-09 SQRT(A) (m 1/2): 5153.672363 Right Ascen at Week(rad): -0.5303907104 Argument of Perigee(rad): 3.109061476 Mean Anom(rad): -0.9489817102 Af0(s): 0.0004084914795 Af1(s/s): 0 week: 145 ******** Week 145 almanac for PRN-21 ******** ID: 21 Health: 0 Eccentricity: 0.02455186844 Time of Applicability(s): 503808 Orbital Inclination(rad): 0.9590340028 Rate of Right Ascen(r/s): -8.034620388e-09 SQRT(A) (m 1/2): 5153.541992 Right Ascen at Week(rad): -1.502617323 Argument of Perigee(rad): -1.021758912 Mean Anom(rad): 0.3613314967 Af0(s): 0.0001236025879 Af1(s/s): 0 week: 145 ******** Week 145 almanac for PRN-22 ******** ID: 22 Health: 255 Eccentricity: 0.006910324097 Time of Applicability(s): 405504 Orbital Inclination(rad): 0.9383672069 Rate of Right Ascen(r/s): -8.366062766e-09 SQRT(A) (m 1/2): 5153.572754 Right Ascen at Week(rad): -0.4837713265 Argument of Perigee(rad): -0.8541831206 Mean Anom(rad): -2.675572962 Af0(s): -0.000326340979 Af1(s/s): 7.275958e-12 week: 145 ******** Week 145 almanac for PRN-23 ******** ID: 23 Health: 0 Eccentricity: 0.001959323883 Time of Applicability(s): 503808 Orbital Inclination(rad): 0.967357047 Rate of Right Ascen(r/s): -8.091765626e-09 SQRT(A) (m 1/2): 5153.648438 Right Ascen at Week(rad): -0.4042960665 Argument of Perigee(rad): 2.925022356 Mean Anom(rad): -2.671080001 Af0(s): 6.783068848e-06 Af1(s/s): -3.637979e-12 week: 145 ******** Week 145 almanac for PRN-24 ******** ID: 24 Health: 0 Eccentricity: 0.01229906082 Time of Applicability(s): 503808 Orbital Inclination(rad): 0.934052886 Rate of Right Ascen(r/s): -8.194627053e-09 SQRT(A) (m 1/2): 5153.635742 Right Ascen at Week(rad): 1.640996546 Argument of Perigee(rad): 0.8023378656 Mean Anom(rad): -1.696109001 Af0(s): 0.0002185655518 Af1(s/s): 0 week: 145 ******** Week 145 almanac for PRN-25 ******** ID: 25 Health: 0 Eccentricity: 0.01039981842 Time of Applicability(s): 503808 Orbital Inclination(rad): 0.9581711386 Rate of Right Ascen(r/s): -8.034620388e-09 SQRT(A) (m 1/2): 5153.663086 Right Ascen at Week(rad): 2.759584251 Argument of Perigee(rad): 0.9728299433 Mean Anom(rad): 2.722498318 Af0(s): 0.0002170582031 Af1(s/s): 7.275958e-12 week: 145 ******** Week 145 almanac for PRN-26 ******** ID: 26 Health: 0 Eccentricity: 0.006806373596 Time of Applicability(s): 503808 Orbital Inclination(rad): 0.9389903866 Rate of Right Ascen(r/s): -8.240343243e-09 SQRT(A) (m 1/2): 5153.623535 Right Ascen at Week(rad): 2.713066733 Argument of Perigee(rad): 0.3528567771 Mean Anom(rad): 2.073363038 Af0(s): 0.0001394297485 Af1(s/s): 3.637979e-12 week: 145 ******** Week 145 almanac for PRN-27 ******** ID: 27 Health: 0 Eccentricity: 0.01007270813 Time of Applicability(s): 503808 Orbital Inclination(rad): 0.973912418 Rate of Right Ascen(r/s): -7.634603726e-09 SQRT(A) (m 1/2): 5153.60791 Right Ascen at Week(rad): -2.472634718 Argument of Perigee(rad): 0.6313106174 Mean Anom(rad): 0.2258509576 Af0(s): 6.406231689e-05 Af1(s/s): 2.182787e-11 week: 145 ******** Week 145 almanac for PRN-29 ******** ID: 29 Health: 0 Eccentricity: 0.001780986786 Time of Applicability(s): 503808 Orbital Inclination(rad): 0.982277407 Rate of Right Ascen(r/s): -7.554600394e-09 SQRT(A) (m 1/2): 5153.722656 Right Ascen at Week(rad): -2.397391762 Argument of Perigee(rad): 2.280401384 Mean Anom(rad): 0.3396115871 Af0(s): -0.000371561438 Af1(s/s): -3.637979e-12 week: 145 ******** Week 145 almanac for PRN-30 ******** ID: 30 Health: 0 Eccentricity: 0.00542640686 Time of Applicability(s): 503808 Orbital Inclination(rad): 0.9357486538 Rate of Right Ascen(r/s): -8.194627053e-09 SQRT(A) (m 1/2): 5153.525879 Right Ascen at Week(rad): 1.736879708 Argument of Perigee(rad): -2.751024144 Mean Anom(rad): -2.644078044 Af0(s): -0.0004017084106 Af1(s/s): -3.637979e-12 week: 145 ******** Week 145 almanac for PRN-31 ******** ID: 31 Health: 0 Eccentricity: 0.01046848297 Time of Applicability(s): 503808 Orbital Inclination(rad): 0.9548035714 Rate of Right Ascen(r/s): -8.000333246e-09 SQRT(A) (m 1/2): 5153.618164 Right Ascen at Week(rad): 1.741361059 Argument of Perigee(rad): 0.3682272946 Mean Anom(rad): -3.114304575 Af0(s): -0.0001273709595 Af1(s/s): 0 week: 145 ******** Week 145 almanac for PRN-32 ******** ID: 32 Health: 0 Eccentricity: 0.005445003509 Time of Applicability(s): 503808 Orbital Inclination(rad): 0.9580812569 Rate of Right Ascen(r/s): -7.737465153e-09 SQRT(A) (m 1/2): 5153.72168 Right Ascen at Week(rad): 0.6623587481 Argument of Perigee(rad): -2.370580055 Mean Anom(rad): 0.9006594429 Af0(s): -4.295943603e-05 Af1(s/s): -7.275958e-12 week: 145